Find Starlink 36255

NORAD ID: 67102 Int'l Des: 2025-299 Owner: SPXS Country: US Constellation: starlink operational
LEOCIRCULAR

当前视图

正在加载3D地球...

关于 Starlink 36255

正在加载描述...

即将过境

Passes for default location (London). Set your location on the main map for personalized predictions.

高度历史

Loading altitude history...

两行轨道根数

1 67102U 25299A 26145.96763798 -.00003787 00000-0 -12807-3 0 9994
2 67102 42.9986 92.6809 0002991 277.5945 82.4567 15.27588762 24931
Epoch: May 25, 2026 • Age: 24 hours

当前状态

高度 487.4 km
速度 7.62 km/s
星下点 -21.90°S, 52.4°E
发射日期 Dec 15, 2025
运行时间 0.4 years
类型 internet

技术详情

分类 Payload
质量 575.00 kg
干质量 530.00 kg
总质量 575.00 kg
长度 0.30 m
直径 4.10 m
跨度 29.00 m
形状 Box + pan
制造商 SPXS
平台类型 Starlink V2MO
阶段状态 In Orbit
所有者/国家 SPXS/US

Most Searched